Terminal Aerodrome Forecast
Issued by NWS

Home | Current Version | Previous Version | Text Only | Print | Product List | Glossary On
Versions: 1 2 3 4 5 6 7 8 9 10 11 12 13 14 15 16 17 18 19 20 21 22 23 24 25 26 27 28 29 30 31 32 33
000
FTAK31 PAFA 281120
TAFAOT
TAF
PAOT 281120Z 2812/2912 11020KT P6SM OVC250
     FM281500 12020KT P6SM -SHSN SCT025 BKN050 OVC100=

USA.gov is the U.S. government's official web portal to all federal, state and local government web resources and services.